Track ZHEDA PIXING 1C now! 10-day predictions ZHEDA PIXING 1C is classified as:
1 37167U 10047C 22138.49467754 .00001231 00000-0 16336-3 0 9997 2 37167 97.7868 112.6624 0024083 128.7864 231.5506 14.81372067629363